Time,TemperatureF,DewpointF,PressureIn,WindDirection,WindDirectionDegrees,WindSpeedMPH,WindSpeedGustMPH,Humidity,HourlyPrecipIn,Conditions,Clouds,dailyrainin,SoftwareType,DateUTC
2013-01-23 00:00:00,67.2,67.2,30.19,NNE,22,3.0,9.0,100,0.00,,,-99.99,WeatherLink 5.5,2013-01-23 05:00:00,
2013-01-23 00:05:00,67.1,67.1,30.19,NNE,22,2.0,7.0,100,0.00,,,-99.99,WeatherLink 5.5,2013-01-23 05:05:00,
2013-01-23 00:10:00,67.1,67.1,30.19,NNE,22,3.0,11.0,100,0.00,,,-99.99,WeatherLink 5.5,2013-01-23 05:10:00,
2013-01-23 00:15:00,67.1,67.1,30.19,NNE,22,2.0,6.0,100,0.00,,,-99.99,WeatherLink 5.5,2013-01-23 05:15:00,
2013-01-23 00:20:00,67.2,67.2,30.19,NNE,22,5.0,14.0,100,0.00,,,-99.99,WeatherLink 5.5,2013-01-23 05:20:00,
2013-01-23 00:25:00,67.3,67.3,30.19,NNE,22,3.0,8.0,100,0.00,,,-99.99,WeatherLink 5.5,2013-01-23 05:25:00,
2013-01-23 00:30:00,67.3,67.3,30.19,NNE,22,2.0,8.0,100,0.00,,,-99.99,WeatherLink 5.5,2013-01-23 05:30:00,
2013-01-23 00:35:00,67.3,67.3,30.19,NNE,22,2.0,8.0,100,0.00,,,-99.99,WeatherLink 5.5,2013-01-23 05:35:00,
2013-01-23 00:40:00,67.1,67.1,30.19,NNE,22,2.0,8.0,100,0.00,,,-99.99,WeatherLink 5.5,2013-01-23 05:40:00,
2013-01-23 00:45:00,67.0,67.0,30.19,NNE,22,2.0,7.0,100,0.00,,,-99.99,WeatherLink 5.5,2013-01-23 05:45:00,
2013-01-23 00:50:00,67.0,67.0,30.19,NNE,22,2.0,8.0,100,0.00,,,-99.99,WeatherLink 5.5,2013-01-23 05:50:00,
2013-01-23 00:55:00,67.0,67.0,30.19,NNE,22,1.0,7.0,100,0.00,,,-99.99,WeatherLink 5.5,2013-01-23 05:55:00,
2013-01-23 01:00:00,66.9,66.9,30.18,NNE,22,1.0,7.0,100,0.00,,,-99.99,WeatherLink 5.5,2013-01-23 06:00:00,
2013-01-23 01:05:00,66.9,66.9,30.19,North,0,2.0,8.0,100,0.00,,,-99.99,WeatherLink 5.5,2013-01-23 06:05:00,
2013-01-23 01:10:00,66.8,66.8,30.19,North,0,1.0,6.0,100,0.00,,,-99.99,WeatherLink 5.5,2013-01-23 06:10:00,
2013-01-23 01:15:00,66.8,66.8,30.19,NNE,22,2.0,7.0,100,0.00,,,-99.99,WeatherLink 5.5,2013-01-23 06:15:00,
2013-01-23 01:20:00,66.8,66.8,30.18,NNE,22,2.0,9.0,100,0.00,,,-99.99,WeatherLink 5.5,2013-01-23 06:20:00,
2013-01-23 01:25:00,66.7,66.7,30.19,NNE,22,2.0,9.0,100,0.00,,,-99.99,WeatherLink 5.5,2013-01-23 06:25:00,
2013-01-23 01:30:00,66.8,66.8,30.18,NNE,22,3.0,8.0,100,0.00,,,-99.99,WeatherLink 5.5,2013-01-23 06:30:00,
2013-01-23 01:35:00,66.8,66.8,30.19,NNE,22,4.0,12.0,100,0.00,,,-99.99,WeatherLink 5.5,2013-01-23 06:35:00,
2013-01-23 01:40:00,66.9,66.9,30.18,NNE,22,2.0,9.0,100,0.00,,,-99.99,WeatherLink 5.5,2013-01-23 06:40:00,
2013-01-23 01:45:00,66.8,66.8,30.18,NNE,22,1.0,7.0,100,0.00,,,-99.99,WeatherLink 5.5,2013-01-23 06:45:00,
2013-01-23 01:50:00,66.7,66.7,30.18,NNE,22,2.0,8.0,100,0.00,,,-99.99,WeatherLink 5.5,2013-01-23 06:50:00,
2013-01-23 01:55:00,66.8,66.8,30.19,NNE,22,1.0,5.0,100,0.00,,,-99.99,WeatherLink 5.5,2013-01-23 06:55:00,
2013-01-23 02:00:00,66.7,66.7,30.19,NNE,22,2.0,7.0,100,0.00,,,-99.99,WeatherLink 5.5,2013-01-23 07:00:00,
2013-01-23 02:05:00,66.7,66.7,30.19,NNE,22,1.0,6.0,100,0.00,,,-99.99,WeatherLink 5.5,2013-01-23 07:05:00,
2013-01-23 02:10:00,66.6,66.6,30.18,NNE,22,1.0,3.0,100,0.00,,,-99.99,WeatherLink 5.5,2013-01-23 07:10:00,
2013-01-23 02:15:00,66.5,66.5,30.18,NNE,22,2.0,8.0,100,0.00,,,-99.99,WeatherLink 5.5,2013-01-23 07:15:00,
2013-01-23 02:20:00,66.6,66.6,30.18,NNE,22,1.0,6.0,100,0.00,,,-99.99,WeatherLink 5.5,2013-01-23 07:20:00,
2013-01-23 02:25:00,66.6,66.6,30.18,NNE,22,0.0,4.0,100,0.00,,,-99.99,WeatherLink 5.5,2013-01-23 07:25:00,
2013-01-23 02:30:00,66.6,66.6,30.18,NNE,22,2.0,6.0,100,0.00,,,-99.99,WeatherLink 5.5,2013-01-23 07:30:00,
2013-01-23 02:35:00,66.7,66.7,30.18,NNE,22,1.0,9.0,100,0.00,,,-99.99,WeatherLink 5.5,2013-01-23 07:35:00,
2013-01-23 02:40:00,66.6,66.6,30.18,NNE,22,1.0,4.0,100,0.00,,,-99.99,WeatherLink 5.5,2013-01-23 07:40:00,
2013-01-23 02:45:00,66.5,66.5,30.18,NNE,22,1.0,4.0,100,0.00,,,-99.99,WeatherLink 5.5,2013-01-23 07:45:00,
2013-01-23 02:50:00,66.4,66.4,30.18,NNE,22,2.0,6.0,100,0.00,,,-99.99,WeatherLink 5.5,2013-01-23 07:50:00,
2013-01-23 02:55:00,66.5,66.5,30.18,NNE,22,1.0,6.0,100,0.00,,,-99.99,WeatherLink 5.5,2013-01-23 07:55:00,
2013-01-23 03:00:00,66.4,66.4,30.18,NNE,22,0.0,1.0,100,0.00,,,-99.99,WeatherLink 5.5,2013-01-23 08:00:00,
2013-01-23 03:05:00,66.4,66.4,30.18,NNE,22,0.0,4.0,100,0.00,,,-99.99,WeatherLink 5.5,2013-01-23 08:05:00,
2013-01-23 03:10:00,66.3,66.3,30.19,NNE,22,1.0,3.0,100,0.00,,,-99.99,WeatherLink 5.5,2013-01-23 08:10:00,
2013-01-23 03:15:00,66.3,66.3,30.19,NNE,22,1.0,5.0,100,0.00,,,-99.99,WeatherLink 5.5,2013-01-23 08:15:00,
2013-01-23 03:20:00,66.3,66.3,30.19,North,-999,0.0,1.0,100,0.00,,,-99.99,WeatherLink 5.5,2013-01-23 08:20:00,
2013-01-23 03:25:00,66.2,66.2,30.19,NNE,22,1.0,4.0,100,0.00,,,-99.99,WeatherLink 5.5,2013-01-23 08:25:00,
2013-01-23 03:30:00,66.2,66.2,30.19,NNE,22,1.0,5.0,100,0.00,,,-99.99,WeatherLink 5.5,2013-01-23 08:30:00,
2013-01-23 03:35:00,66.1,66.1,30.19,NNE,22,0.0,3.0,100,0.00,,,-99.99,WeatherLink 5.5,2013-01-23 08:35:00,
2013-01-23 03:40:00,66.1,66.1,30.18,NNE,22,0.0,4.0,100,0.00,,,-99.99,WeatherLink 5.5,2013-01-23 08:40:00,
2013-01-23 03:45:00,66.1,66.1,30.19,NNE,22,1.0,5.0,100,0.00,,,-99.99,WeatherLink 5.5,2013-01-23 08:45:00,
2013-01-23 03:50:00,66.1,66.1,30.19,NNE,22,1.0,4.0,100,0.00,,,-99.99,WeatherLink 5.5,2013-01-23 08:50:00,
2013-01-23 03:55:00,66.2,66.2,30.19,NNE,22,1.0,6.0,100,0.00,,,-99.99,WeatherLink 5.5,2013-01-23 08:55:00,
2013-01-23 04:00:00,66.3,66.3,30.19,NNE,22,1.0,5.0,100,0.00,,,-99.99,WeatherLink 5.5,2013-01-23 09:00:00,
2013-01-23 04:05:00,66.3,66.3,30.19,NNE,22,1.0,5.0,100,0.00,,,-99.99,WeatherLink 5.5,2013-01-23 09:05:00,
2013-01-23 04:10:00,66.4,66.4,30.18,NNE,22,0.0,4.0,100,0.00,,,-99.99,WeatherLink 5.5,2013-01-23 09:10:00,
2013-01-23 04:15:00,66.3,66.3,30.19,NNE,22,1.0,4.0,100,0.00,,,-99.99,WeatherLink 5.5,2013-01-23 09:15:00,
2013-01-23 04:20:00,66.2,66.2,30.18,NNE,22,0.0,3.0,100,0.00,,,-99.99,WeatherLink 5.5,2013-01-23 09:20:00,
2013-01-23 04:25:00,66.2,66.2,30.18,North,-999,0.0,0.0,100,0.00,,,-99.99,WeatherLink 5.5,2013-01-23 09:25:00,
2013-01-23 04:30:00,65.9,65.9,30.19,North,-999,0.0,0.0,100,0.00,,,-99.99,WeatherLink 5.5,2013-01-23 09:30:00,
2013-01-23 04:35:00,65.2,65.2,30.18,North,-999,0.0,1.0,100,0.00,,,-99.99,WeatherLink 5.5,2013-01-23 09:35:00,
2013-01-23 04:40:00,64.6,64.6,30.18,NNE,22,1.0,4.0,100,0.00,,,-99.99,WeatherLink 5.5,2013-01-23 09:40:00,
2013-01-23 04:45:00,64.2,64.2,30.18,NNE,22,0.0,3.0,100,0.00,,,-99.99,WeatherLink 5.5,2013-01-23 09:45:00,
2013-01-23 04:50:00,63.8,63.8,30.18,NNE,22,1.0,4.0,100,0.00,,,-99.99,WeatherLink 5.5,2013-01-23 09:50:00,
2013-01-23 04:55:00,63.5,63.5,30.18,North,-999,0.0,0.0,100,0.00,,,-99.99,WeatherLink 5.5,2013-01-23 09:55:00,
2013-01-23 05:00:00,63.3,63.3,30.18,NNE,22,0.0,3.0,100,0.00,,,-99.99,WeatherLink 5.5,2013-01-23 10:00:00,
2013-01-23 05:05:00,63.2,63.2,30.19,North,0,2.0,4.0,100,0.00,,,-99.99,WeatherLink 5.5,2013-01-23 10:05:00,
2013-01-23 05:10:00,63.0,63.0,30.19,North,0,2.0,5.0,100,0.00,,,-99.99,WeatherLink 5.5,2013-01-23 10:10:00,
2013-01-23 05:15:00,62.8,62.8,30.19,North,0,1.0,4.0,100,0.00,,,-99.99,WeatherLink 5.5,2013-01-23 10:15:00,
2013-01-23 05:20:00,62.6,62.6,30.19,North,0,0.0,3.0,100,0.00,,,-99.99,WeatherLink 5.5,2013-01-23 10:20:00,
2013-01-23 05:25:00,62.5,62.5,30.18,North,0,1.0,4.0,100,0.00,,,-99.99,WeatherLink 5.5,2013-01-23 10:25:00,
2013-01-23 05:30:00,62.5,62.5,30.18,North,0,0.0,1.0,100,0.00,,,-99.99,WeatherLink 5.5,2013-01-23 10:30:00,
2013-01-23 05:35:00,62.4,62.4,30.19,North,0,0.0,4.0,100,0.00,,,-99.99,WeatherLink 5.5,2013-01-23 10:35:00,
2013-01-23 05:40:00,62.4,-99.9,30.19,North,0,0.0,4.0,0,0.00,,,-99.99,WeatherLink 5.5,2013-01-23 10:40:00,
2013-01-23 05:45:00,62.3,-99.9,30.19,North,0,0.0,3.0,0,0.00,,,-99.99,WeatherLink 5.5,2013-01-23 10:45:00,
2013-01-23 05:50:00,62.2,-99.9,30.19,North,0,0.0,2.0,0,0.00,,,-99.99,WeatherLink 5.5,2013-01-23 10:50:00,
2013-01-23 05:55:00,62.2,-99.9,30.20,North,0,0.0,2.0,0,0.00,,,-99.99,WeatherLink 5.5,2013-01-23 10:55:00,
2013-01-23 06:00:00,62.1,-99.9,30.20,North,0,0.0,3.0,0,0.00,,,-99.99,WeatherLink 5.5,2013-01-23 11:00:00,
2013-01-23 06:05:00,62.0,-99.9,30.21,North,0,1.0,4.0,0,0.00,,,-99.99,WeatherLink 5.5,2013-01-23 11:05:00,
2013-01-23 06:10:00,62.0,-99.9,30.21,North,0,0.0,3.0,0,0.00,,,-99.99,WeatherLink 5.5,2013-01-23 11:10:00,
2013-01-23 06:15:00,61.9,-99.9,30.21,North,0,0.0,5.0,0,0.00,,,-99.99,WeatherLink 5.5,2013-01-23 11:15:00,
2013-01-23 06:20:00,61.8,-99.9,30.21,North,0,1.0,5.0,0,0.00,,,-99.99,WeatherLink 5.5,2013-01-23 11:20:00,
2013-01-23 06:25:00,61.7,-99.9,30.22,North,0,2.0,5.0,0,0.00,,,-99.99,WeatherLink 5.5,2013-01-23 11:25:00,
2013-01-23 06:30:00,61.6,-99.9,30.22,North,0,0.0,3.0,0,0.00,,,-99.99,WeatherLink 5.5,2013-01-23 11:30:00,
2013-01-23 06:35:00,61.5,-28.0,30.22,North,0,0.0,4.0,2,0.00,,,-99.99,WeatherLink 5.5,2013-01-23 11:35:00,
2013-01-23 06:40:00,61.5,-10.3,30.22,North,0,1.0,4.0,5,0.00,,,-99.99,WeatherLink 5.5,2013-01-23 11:40:00,
2013-01-23 06:45:00,61.5,-3.3,30.22,North,0,0.0,3.0,7,0.00,,,-99.99,WeatherLink 5.5,2013-01-23 11:45:00,
2013-01-23 06:50:00,61.5,-3.3,30.22,North,0,1.0,6.0,7,0.00,,,-99.99,WeatherLink 5.5,2013-01-23 11:50:00,
2013-01-23 06:55:00,61.4,-0.6,30.22,North,0,2.0,6.0,8,0.00,,,-99.99,WeatherLink 5.5,2013-01-23 11:55:00,
2013-01-23 07:00:00,61.4,2.0,30.22,North,0,1.0,4.0,9,0.00,,,-99.99,WeatherLink 5.5,2013-01-23 12:00:00,
2013-01-23 07:05:00,61.3,4.2,30.22,North,0,2.0,5.0,10,0.00,,,-99.99,WeatherLink 5.5,2013-01-23 12:05:00,
2013-01-23 07:10:00,61.3,10.0,30.22,North,0,1.0,5.0,13,0.00,,,-99.99,WeatherLink 5.5,2013-01-23 12:10:00,
2013-01-23 07:15:00,61.3,14.7,30.23,North,0,0.0,4.0,16,0.00,,,-99.99,WeatherLink 5.5,2013-01-23 12:15:00,
2013-01-23 07:20:00,61.2,17.3,30.24,North,0,1.0,5.0,18,0.00,,,-99.99,WeatherLink 5.5,2013-01-23 12:20:00,
2013-01-23 07:25:00,61.2,19.8,30.23,North,0,1.0,5.0,20,0.00,,,-99.99,WeatherLink 5.5,2013-01-23 12:25:00,
2013-01-23 07:30:00,61.3,25.1,30.24,North,0,1.0,4.0,25,0.00,,,-99.99,WeatherLink 5.5,2013-01-23 12:30:00,
2013-01-23 07:35:00,61.3,27.0,30.23,North,0,0.0,4.0,27,0.00,,,-99.99,WeatherLink 5.5,2013-01-23 12:35:00,
2013-01-23 07:40:00,61.3,27.9,30.23,North,0,2.0,8.0,28,0.00,,,-99.99,WeatherLink 5.5,2013-01-23 12:40:00,
2013-01-23 07:45:00,61.4,28.0,30.23,NNW,337,2.0,5.0,28,0.00,,,-99.99,WeatherLink 5.5,2013-01-23 12:45:00,
2013-01-23 07:50:00,61.5,30.6,30.24,NNW,337,1.0,6.0,31,0.00,,,-99.99,WeatherLink 5.5,2013-01-23 12:50:00,
2013-01-23 07:55:00,61.5,31.3,30.25,NNW,337,2.0,9.0,32,0.00,,,-99.99,WeatherLink 5.5,2013-01-23 12:55:00,
2013-01-23 08:00:00,61.5,30.6,30.25,NNW,337,2.0,7.0,31,0.00,,,-99.99,WeatherLink 5.5,2013-01-23 13:00:00,
2013-01-23 08:05:00,61.5,32.8,30.25,NNW,337,1.0,6.0,34,0.00,,,-99.99,WeatherLink 5.5,2013-01-23 13:05:00,
2013-01-23 08:10:00,61.6,32.9,30.25,NNW,337,1.0,5.0,34,0.00,,,-99.99,WeatherLink 5.5,2013-01-23 13:10:00,
2013-01-23 08:15:00,61.7,33.7,30.25,NNW,337,2.0,9.0,35,0.00,,,-99.99,WeatherLink 5.5,2013-01-23 13:15:00,
2013-01-23 08:20:00,61.8,32.4,30.25,North,0,2.0,9.0,33,0.00,,,-99.99,WeatherLink 5.5,2013-01-23 13:20:00,
2013-01-23 08:25:00,61.9,33.9,30.25,NNW,337,2.0,7.0,35,0.00,,,-99.99,WeatherLink 5.5,2013-01-23 13:25:00,
2013-01-23 08:30:00,62.0,31.8,30.25,North,0,1.0,6.0,32,0.00,,,-99.99,WeatherLink 5.5,2013-01-23 13:30:00,
2013-01-23 08:35:00,62.1,34.1,30.25,North,0,2.0,8.0,35,0.00,,,-99.99,WeatherLink 5.5,2013-01-23 13:35:00,
2013-01-23 08:40:00,62.2,34.9,30.26,North,0,2.0,10.0,36,0.00,,,-99.99,WeatherLink 5.5,2013-01-23 13:40:00,
2013-01-23 08:45:00,62.4,35.8,30.26,North,0,3.0,9.0,37,0.00,,,-99.99,WeatherLink 5.5,2013-01-23 13:45:00,
2013-01-23 08:50:00,62.6,37.3,30.26,North,0,2.0,9.0,39,0.00,,,-99.99,WeatherLink 5.5,2013-01-23 13:50:00,
2013-01-23 08:55:00,62.8,37.5,30.26,North,0,3.0,9.0,39,0.00,,,-99.99,WeatherLink 5.5,2013-01-23 13:55:00,
2013-01-23 09:00:00,62.9,38.2,30.26,North,0,3.0,7.0,40,0.00,,,-99.99,WeatherLink 5.5,2013-01-23 14:00:00,
2013-01-23 09:05:00,63.2,40.9,30.26,North,0,3.0,7.0,44,0.00,,,-99.99,WeatherLink 5.5,2013-01-23 14:05:00,
2013-01-23 09:10:00,63.4,42.2,30.26,North,0,2.0,8.0,46,0.00,,,-99.99,WeatherLink 5.5,2013-01-23 14:10:00,
2013-01-23 09:15:00,63.7,41.9,30.27,North,0,2.0,7.0,45,0.00,,,-99.99,WeatherLink 5.5,2013-01-23 14:15:00,
2013-01-23 09:20:00,64.1,42.3,30.27,NNW,337,3.0,6.0,45,0.00,,,-99.99,WeatherLink 5.5,2013-01-23 14:20:00,
2013-01-23 09:25:00,64.2,43.0,30.27,NNW,337,3.0,9.0,46,0.00,,,-99.99,WeatherLink 5.5,2013-01-23 14:25:00,
2013-01-23 09:30:00,64.2,40.6,30.27,North,0,2.0,7.0,42,0.00,,,-99.99,WeatherLink 5.5,2013-01-23 14:30:00,
2013-01-23 09:35:00,64.3,41.3,30.27,North,0,3.0,8.0,43,0.00,,,-99.99,WeatherLink 5.5,2013-01-23 14:35:00,
2013-01-23 09:40:00,64.3,38.8,30.27,North,0,3.0,8.0,39,0.00,,,-99.99,WeatherLink 5.5,2013-01-23 14:40:00,
2013-01-23 09:45:00,64.3,40.1,30.28,North,0,2.0,9.0,41,0.00,,,-99.99,WeatherLink 5.5,2013-01-23 14:45:00,
2013-01-23 09:50:00,64.3,38.8,30.28,NNW,337,3.0,9.0,39,0.00,,,-99.99,WeatherLink 5.5,2013-01-23 14:50:00,
2013-01-23 09:55:00,64.3,37.5,30.28,NNW,337,2.0,7.0,37,0.00,,,-99.99,WeatherLink 5.5,2013-01-23 14:55:00,
2013-01-23 10:00:00,64.4,38.2,30.28,NNW,337,3.0,10.0,38,0.00,,,-99.99,WeatherLink 5.5,2013-01-23 15:00:00,
2013-01-23 10:05:00,64.5,39.6,30.27,North,0,3.0,8.0,40,0.00,,,-99.99,WeatherLink 5.5,2013-01-23 15:05:00,
2013-01-23 10:10:00,64.4,35.4,30.27,North,0,2.0,8.0,34,0.00,,,-99.99,WeatherLink 5.5,2013-01-23 15:10:00,
2013-01-23 10:15:00,64.4,38.2,30.27,North,0,2.0,8.0,38,0.00,,,-99.99,WeatherLink 5.5,2013-01-23 15:15:00,
2013-01-23 10:20:00,64.5,39.6,30.28,North,0,1.0,5.0,40,0.00,,,-99.99,WeatherLink 5.5,2013-01-23 15:20:00,
2013-01-23 10:25:00,64.9,42.5,30.27,North,0,2.0,7.0,44,0.00,,,-99.99,WeatherLink 5.5,2013-01-23 15:25:00,
2013-01-23 10:30:00,65.5,45.3,30.27,North,0,2.0,9.0,48,0.00,,,-99.99,WeatherLink 5.5,2013-01-23 15:30:00,
2013-01-23 10:35:00,66.2,48.0,30.28,North,0,3.0,9.0,52,0.00,,,-99.99,WeatherLink 5.5,2013-01-23 15:35:00,
2013-01-23 10:40:00,66.7,46.4,30.28,North,0,3.0,9.0,48,0.00,,,-99.99,WeatherLink 5.5,2013-01-23 15:40:00,
2013-01-23 10:45:00,67.2,44.5,30.27,NNW,337,3.0,9.0,44,0.00,,,-99.99,WeatherLink 5.5,2013-01-23 15:45:00,
2013-01-23 10:50:00,67.9,44.6,30.27,North,0,3.0,7.0,43,0.00,,,-99.99,WeatherLink 5.5,2013-01-23 15:50:00,
2013-01-23 10:55:00,68.8,44.1,30.27,North,0,2.0,7.0,41,0.00,,,-99.99,WeatherLink 5.5,2013-01-23 15:55:00,
2013-01-23 11:00:00,69.5,68.9,30.27,North,0,4.0,10.0,98,0.00,,,-99.99,WeatherLink 5.5,2013-01-23 16:00:00,
2013-01-23 11:05:00,69.7,40.8,30.27,North,0,1.0,6.0,35,0.00,,,-99.99,WeatherLink 5.5,2013-01-23 16:05:00,
2013-01-23 11:13:00,69.7,40.8,30.27,North,0,1.0,6.0,35,0.00,,,-99.99,WeatherLink 5.5,2013-01-23 16:13:00,
2013-01-23 11:21:00,70.2,37.3,30.27,North,0,3.0,9.0,30,0.00,,,-99.99,WeatherLink 5.5,2013-01-23 16:21:00,
2013-01-23 11:31:00,70.7,34.1,30.26,North,0,4.0,9.0,26,0.00,,,-99.99,WeatherLink 5.5,2013-01-23 16:31:00,
2013-01-23 11:41:00,70.9,29.0,30.26,NNE,22,2.0,6.0,21,0.00,,,-99.99,WeatherLink 5.5,2013-01-23 16:41:00,
2013-01-23 11:46:00,71.0,25.3,30.26,NNE,22,3.0,10.0,18,0.00,,,-99.99,WeatherLink 5.5,2013-01-23 16:46:00,
2013-01-23 11:56:00,71.3,-7.9,30.25,NE,45,3.0,12.0,4,0.00,,,-99.99,WeatherLink 5.5,2013-01-23 16:56:00,
2013-01-23 12:06:00,72.4,-99.9,30.25,NNE,22,4.0,9.0,0,0.00,,,-99.99,WeatherLink 5.5,2013-01-23 17:06:00,
2013-01-23 12:16:00,72.8,-99.9,30.25,NNE,22,3.0,11.0,-999,0.00,,,-99.99,WeatherLink 5.5,2013-01-23 17:16:00,
2013-01-23 12:26:00,73.2,73.2,30.25,NE,45,3.0,10.0,100,0.00,,,-99.99,WeatherLink 5.5,2013-01-23 17:26:00,
2013-01-23 12:31:00,73.4,73.4,30.25,NNE,22,4.0,12.0,100,0.00,,,-99.99,WeatherLink 5.5,2013-01-23 17:31:00,
2013-01-23 12:41:00,73.0,73.0,30.24,NNE,22,4.0,16.0,100,0.00,,,-99.99,WeatherLink 5.5,2013-01-23 17:41:00,
2013-01-23 12:51:00,72.5,72.5,30.23,NNE,22,4.0,12.0,100,0.00,,,-99.99,WeatherLink 5.5,2013-01-23 17:51:00,
2013-01-23 13:01:00,72.8,72.8,30.23,North,0,4.0,9.0,100,0.00,,,-99.99,WeatherLink 5.5,2013-01-23 18:01:00,
2013-01-23 13:11:00,73.5,73.5,30.22,NNE,22,4.0,15.0,100,0.00,,,-99.99,WeatherLink 5.5,2013-01-23 18:11:00,
2013-01-23 13:16:00,73.3,73.3,30.22,NNE,22,5.0,11.0,100,0.00,,,-99.99,WeatherLink 5.5,2013-01-23 18:16:00,
2013-01-23 13:26:00,73.3,73.3,30.22,ENE,67,5.0,15.0,100,0.00,,,-99.99,WeatherLink 5.5,2013-01-23 18:26:00,
2013-01-23 13:31:00,73.4,73.4,30.22,NE,45,4.0,11.0,100,0.00,,,-99.99,WeatherLink 5.5,2013-01-23 18:31:00,
2013-01-23 13:41:00,73.0,73.0,30.22,NNE,22,5.0,11.0,100,0.00,,,-99.99,WeatherLink 5.5,2013-01-23 18:41:00,
2013-01-23 13:46:00,72.7,72.7,30.21,NE,45,5.0,14.0,100,0.00,,,-99.99,WeatherLink 5.5,2013-01-23 18:46:00,
2013-01-23 13:56:00,73.2,73.2,30.21,NE,45,4.0,10.0,100,0.00,,,-99.99,WeatherLink 5.5,2013-01-23 18:56:00,
2013-01-23 14:01:00,73.3,73.3,30.21,NE,45,5.0,9.0,100,0.00,,,-99.99,WeatherLink 5.5,2013-01-23 19:01:00,
2013-01-23 14:11:00,73.1,73.1,30.20,NE,45,4.0,10.0,100,0.00,,,-99.99,WeatherLink 5.5,2013-01-23 19:11:00,
2013-01-23 14:15:00,73.2,73.2,30.20,ENE,67,5.0,10.0,100,0.00,,,-99.99,WeatherLink 5.5,2013-01-23 19:15:00,
2013-01-23 14:16:00,73.2,73.2,30.20,NE,45,6.0,14.0,100,0.00,,,-99.99,WeatherLink 5.5,2013-01-23 19:16:00,
2013-01-23 14:20:00,73.2,73.2,30.20,NE,45,5.0,11.0,100,0.00,,,-99.99,WeatherLink 5.5,2013-01-23 19:20:00,
2013-01-23 14:25:00,73.3,73.3,30.20,NNE,22,5.0,12.0,100,0.00,,,-99.99,WeatherLink 5.5,2013-01-23 19:25:00,
2013-01-23 14:30:00,73.2,73.2,30.20,ENE,67,5.0,12.0,100,0.00,,,-99.99,WeatherLink 5.5,2013-01-23 19:30:00,
2013-01-23 14:35:00,73.2,73.2,30.21,NE,45,5.0,12.0,100,0.00,,,-99.99,WeatherLink 5.5,2013-01-23 19:35:00,
2013-01-23 14:40:00,73.2,73.2,30.20,NE,45,4.0,11.0,100,0.00,,,-99.99,WeatherLink 5.5,2013-01-23 19:40:00,
2013-01-23 14:45:00,73.0,73.0,30.20,NE,45,6.0,14.0,100,0.00,,,-99.99,WeatherLink 5.5,2013-01-23 19:45:00,
2013-01-23 14:50:00,72.6,72.6,30.20,ENE,67,3.0,8.0,100,0.00,,,-99.99,WeatherLink 5.5,2013-01-23 19:50:00,
2013-01-23 14:55:00,72.2,72.2,30.21,NE,45,2.0,10.0,100,0.00,,,-99.99,WeatherLink 5.5,2013-01-23 19:55:00,
2013-01-23 15:00:00,72.1,72.1,30.21,ENE,67,6.0,16.0,100,0.00,,,-99.99,WeatherLink 5.5,2013-01-23 20:00:00,
2013-01-23 15:05:00,72.3,72.3,30.20,NE,45,4.0,10.0,100,0.00,,,-99.99,WeatherLink 5.5,2013-01-23 20:05:00,
2013-01-23 15:10:00,72.5,72.5,30.20,ENE,67,4.0,10.0,100,0.00,,,-99.99,WeatherLink 5.5,2013-01-23 20:10:00,
2013-01-23 15:15:00,72.8,72.8,30.20,ENE,67,4.0,8.0,100,0.00,,,-99.99,WeatherLink 5.5,2013-01-23 20:15:00,
2013-01-23 15:20:00,72.9,72.9,30.20,NE,45,6.0,12.0,100,0.00,,,-99.99,WeatherLink 5.5,2013-01-23 20:20:00,
2013-01-23 15:25:00,72.6,72.6,30.21,NNE,22,4.0,12.0,100,0.00,,,-99.99,WeatherLink 5.5,2013-01-23 20:25:00,
2013-01-23 15:30:00,72.3,72.3,30.21,ENE,67,2.0,9.0,100,0.00,,,-99.99,WeatherLink 5.5,2013-01-23 20:30:00,
2013-01-23 15:35:00,72.1,72.1,30.21,NNE,22,4.0,10.0,100,0.00,,,-99.99,WeatherLink 5.5,2013-01-23 20:35:00,
2013-01-23 15:40:00,72.1,72.1,30.21,NE,45,4.0,11.0,100,0.00,,,-99.99,WeatherLink 5.5,2013-01-23 20:40:00,
2013-01-23 15:45:00,72.4,72.4,30.21,NNE,22,5.0,10.0,100,0.00,,,-99.99,WeatherLink 5.5,2013-01-23 20:45:00,
2013-01-23 15:50:00,72.1,72.1,30.21,NE,45,3.0,10.0,100,0.00,,,-99.99,WeatherLink 5.5,2013-01-23 20:50:00,
2013-01-23 15:55:00,71.8,71.8,30.21,NNE,22,4.0,9.0,100,0.00,,,-99.99,WeatherLink 5.5,2013-01-23 20:55:00,
2013-01-23 16:00:00,71.5,71.5,30.21,NE,45,3.0,10.0,100,0.00,,,-99.99,WeatherLink 5.5,2013-01-23 21:00:00,
2013-01-23 16:05:00,71.7,71.7,30.22,NE,45,6.0,11.0,100,0.00,,,-99.99,WeatherLink 5.5,2013-01-23 21:05:00,
2013-01-23 16:10:00,71.8,71.8,30.22,NE,45,2.0,8.0,100,0.00,,,-99.99,WeatherLink 5.5,2013-01-23 21:10:00,
2013-01-23 16:15:00,71.9,71.9,30.22,ENE,67,4.0,11.0,100,0.00,,,-99.99,WeatherLink 5.5,2013-01-23 21:15:00,
2013-01-23 16:20:00,71.8,71.8,30.22,ENE,67,4.0,9.0,100,0.00,,,-99.99,WeatherLink 5.5,2013-01-23 21:20:00,
2013-01-23 16:25:00,71.7,71.7,30.22,NE,45,5.0,11.0,100,0.00,,,-99.99,WeatherLink 5.5,2013-01-23 21:25:00,
2013-01-23 16:30:00,71.4,71.4,30.22,NNE,22,3.0,10.0,100,0.00,,,-99.99,WeatherLink 5.5,2013-01-23 21:30:00,
2013-01-23 16:35:00,71.3,71.3,30.22,NE,45,5.0,13.0,100,0.00,,,-99.99,WeatherLink 5.5,2013-01-23 21:35:00,
2013-01-23 16:40:00,71.1,71.1,30.22,NE,45,3.0,8.0,100,0.00,,,-99.99,WeatherLink 5.5,2013-01-23 21:40:00,
2013-01-23 16:45:00,70.9,70.9,30.22,NNE,22,4.0,10.0,100,0.00,,,-99.99,WeatherLink 5.5,2013-01-23 21:45:00,
2013-01-23 16:50:00,70.8,70.8,30.22,NE,45,3.0,10.0,100,0.00,,,-99.99,WeatherLink 5.5,2013-01-23 21:50:00,
2013-01-23 16:55:00,70.9,70.9,30.22,NE,45,3.0,9.0,100,0.00,,,-99.99,WeatherLink 5.5,2013-01-23 21:55:00,
2013-01-23 17:00:00,71.0,71.0,30.22,NE,45,4.0,10.0,100,0.00,,,-99.99,WeatherLink 5.5,2013-01-23 22:00:00,
2013-01-23 17:05:00,71.0,71.0,30.22,NE,45,4.0,9.0,100,0.00,,,-99.99,WeatherLink 5.5,2013-01-23 22:05:00,
2013-01-23 17:10:00,70.9,70.9,30.22,NNE,22,2.0,8.0,100,0.00,,,-99.99,WeatherLink 5.5,2013-01-23 22:10:00,
2013-01-23 17:15:00,70.8,70.8,30.22,NNE,22,3.0,6.0,100,0.00,,,-99.99,WeatherLink 5.5,2013-01-23 22:15:00,
2013-01-23 17:20:00,70.7,70.7,30.22,NNE,22,2.0,9.0,100,0.00,,,-99.99,WeatherLink 5.5,2013-01-23 22:20:00,
2013-01-23 17:25:00,70.4,70.4,30.22,NNE,22,2.0,7.0,100,0.00,,,-99.99,WeatherLink 5.5,2013-01-23 22:25:00,
2013-01-23 17:30:00,70.2,70.2,30.22,NNE,22,3.0,11.0,100,0.00,,,-99.99,WeatherLink 5.5,2013-01-23 22:30:00,
2013-01-23 17:35:00,70.1,70.1,30.22,NE,45,2.0,7.0,100,0.00,,,-99.99,WeatherLink 5.5,2013-01-23 22:35:00,
2013-01-23 17:40:00,69.9,69.9,30.22,ENE,67,3.0,11.0,100,0.00,,,-99.99,WeatherLink 5.5,2013-01-23 22:40:00,
2013-01-23 17:45:00,69.8,69.8,30.22,NE,45,2.0,8.0,100,0.00,,,-99.99,WeatherLink 5.5,2013-01-23 22:45:00,
2013-01-23 17:50:00,69.6,69.6,30.22,NE,45,3.0,8.0,100,0.00,,,-99.99,WeatherLink 5.5,2013-01-23 22:50:00,
2013-01-23 17:55:00,69.6,69.6,30.22,NE,45,1.0,5.0,100,0.00,,,-99.99,WeatherLink 5.5,2013-01-23 22:55:00,
2013-01-23 18:00:00,69.3,69.3,30.21,NE,45,1.0,5.0,100,0.00,,,-99.99,WeatherLink 5.5,2013-01-23 23:00:00,
2013-01-23 18:05:00,69.1,69.1,30.22,NE,45,1.0,5.0,100,0.00,,,-99.99,WeatherLink 5.5,2013-01-23 23:05:00,
2013-01-23 18:10:00,68.8,68.8,30.21,NE,45,1.0,5.0,100,0.00,,,-99.99,WeatherLink 5.5,2013-01-23 23:10:00,
2013-01-23 18:15:00,68.7,68.7,30.22,NE,45,1.0,4.0,100,0.00,,,-99.99,WeatherLink 5.5,2013-01-23 23:15:00,
2013-01-23 18:20:00,68.5,68.5,30.22,NE,45,0.0,2.0,100,0.00,,,-99.99,WeatherLink 5.5,2013-01-23 23:20:00,
2013-01-23 18:25:00,68.2,68.2,30.22,North,-999,0.0,0.0,100,0.00,,,-99.99,WeatherLink 5.5,2013-01-23 23:25:00,
2013-01-23 18:30:00,67.9,67.9,30.22,North,-999,0.0,0.0,100,0.00,,,-99.99,WeatherLink 5.5,2013-01-23 23:30:00,
2013-01-23 18:35:00,67.6,67.6,30.22,NE,45,0.0,1.0,100,0.00,,,-99.99,WeatherLink 5.5,2013-01-23 23:35:00,
2013-01-23 18:40:00,67.5,67.5,30.22,NE,45,0.0,3.0,100,0.00,,,-99.99,WeatherLink 5.5,2013-01-23 23:40:00,
2013-01-23 18:45:00,67.4,67.4,30.22,NE,45,1.0,6.0,100,0.00,,,-99.99,WeatherLink 5.5,2013-01-23 23:45:00,
2013-01-23 18:50:00,67.4,67.4,30.23,North,0,4.0,7.0,100,0.00,,,-99.99,WeatherLink 5.5,2013-01-23 23:50:00,
2013-01-23 18:55:00,67.5,67.5,30.23,North,0,3.0,10.0,100,0.00,,,-99.99,WeatherLink 5.5,2013-01-23 23:55:00,
2013-01-23 19:00:00,67.4,67.4,30.23,North,0,2.0,7.0,100,0.00,,,-99.99,WeatherLink 5.5,2013-01-24 00:00:00,
2013-01-23 19:05:00,67.2,67.2,30.23,North,0,1.0,6.0,100,0.00,,,-99.99,WeatherLink 5.5,2013-01-24 00:05:00,
2013-01-23 19:10:00,67.0,67.0,30.23,North,0,1.0,5.0,100,0.00,,,-99.99,WeatherLink 5.5,2013-01-24 00:10:00,
2013-01-23 19:15:00,66.8,66.8,30.24,North,0,2.0,8.0,100,0.00,,,-99.99,WeatherLink 5.5,2013-01-24 00:15:00,
2013-01-23 19:20:00,66.6,66.6,30.24,North,0,2.0,6.0,100,0.00,,,-99.99,WeatherLink 5.5,2013-01-24 00:20:00,
2013-01-23 19:25:00,66.4,66.4,30.24,North,0,1.0,3.0,100,0.00,,,-99.99,WeatherLink 5.5,2013-01-24 00:25:00,
2013-01-23 19:30:00,66.3,66.3,30.24,North,0,1.0,4.0,100,0.00,,,-99.99,WeatherLink 5.5,2013-01-24 00:30:00,
2013-01-23 19:35:00,66.1,66.1,30.24,North,0,1.0,6.0,100,0.00,,,-99.99,WeatherLink 5.5,2013-01-24 00:35:00,
2013-01-23 19:40:00,65.9,65.9,30.24,North,0,1.0,7.0,100,0.00,,,-99.99,WeatherLink 5.5,2013-01-24 00:40:00,
2013-01-23 19:45:00,65.8,65.8,30.24,North,0,3.0,9.0,100,0.00,,,-99.99,WeatherLink 5.5,2013-01-24 00:45:00,
2013-01-23 19:50:00,65.7,65.7,30.24,North,0,0.0,4.0,100,0.00,,,-99.99,WeatherLink 5.5,2013-01-24 00:50:00,
2013-01-23 19:55:00,65.5,65.5,30.25,North,0,1.0,6.0,100,0.00,,,-99.99,WeatherLink 5.5,2013-01-24 00:55:00,
2013-01-23 20:00:00,65.4,65.4,30.25,North,0,1.0,6.0,100,0.00,,,-99.99,WeatherLink 5.5,2013-01-24 01:00:00,
2013-01-23 20:05:00,65.3,65.3,30.25,North,0,1.0,6.0,100,0.00,,,-99.99,WeatherLink 5.5,2013-01-24 01:05:00,
2013-01-23 20:10:00,65.1,65.1,30.25,North,0,2.0,7.0,100,0.00,,,-99.99,WeatherLink 5.5,2013-01-24 01:10:00,
2013-01-23 20:15:00,65.0,65.0,30.25,North,0,3.0,8.0,100,0.00,,,-99.99,WeatherLink 5.5,2013-01-24 01:15:00,
2013-01-23 20:20:00,64.9,64.9,30.25,North,0,2.0,8.0,100,0.00,,,-99.99,WeatherLink 5.5,2013-01-24 01:20:00,
2013-01-23 20:25:00,64.8,64.8,30.25,North,0,3.0,7.0,100,0.00,,,-99.99,WeatherLink 5.5,2013-01-24 01:25:00,
2013-01-23 20:30:00,64.6,64.6,30.25,North,0,1.0,5.0,100,0.00,,,-99.99,WeatherLink 5.5,2013-01-24 01:30:00,
2013-01-23 20:35:00,64.5,64.5,30.26,North,0,1.0,6.0,100,0.00,,,-99.99,WeatherLink 5.5,2013-01-24 01:35:00,
2013-01-23 20:40:00,64.4,64.4,30.26,NNW,337,2.0,7.0,100,0.00,,,-99.99,WeatherLink 5.5,2013-01-24 01:40:00,
2013-01-23 20:45:00,64.3,64.3,30.26,NNW,337,1.0,5.0,100,0.00,,,-99.99,WeatherLink 5.5,2013-01-24 01:45:00,
2013-01-23 20:50:00,64.1,64.1,30.26,NNW,337,1.0,6.0,100,0.00,,,-99.99,WeatherLink 5.5,2013-01-24 01:50:00,
2013-01-23 20:55:00,63.9,63.9,30.26,NNW,337,2.0,7.0,100,0.00,,,-99.99,WeatherLink 5.5,2013-01-24 01:55:00,
2013-01-23 21:00:00,63.8,63.8,30.26,NNW,337,1.0,6.0,100,0.00,,,-99.99,WeatherLink 5.5,2013-01-24 02:00:00,
2013-01-23 21:05:00,63.6,63.6,30.26,NNW,337,1.0,6.0,100,0.00,,,-99.99,WeatherLink 5.5,2013-01-24 02:05:00,
2013-01-23 21:10:00,63.5,63.5,30.26,NNW,337,2.0,5.0,100,0.00,,,-99.99,WeatherLink 5.5,2013-01-24 02:10:00,
2013-01-23 21:15:00,63.4,63.4,30.26,NNW,337,1.0,6.0,100,0.00,,,-99.99,WeatherLink 5.5,2013-01-24 02:15:00,
2013-01-23 21:20:00,63.3,63.3,30.26,NNW,337,2.0,8.0,100,0.00,,,-99.99,WeatherLink 5.5,2013-01-24 02:20:00,
2013-01-23 21:25:00,63.2,63.2,30.26,North,0,1.0,5.0,100,0.00,,,-99.99,WeatherLink 5.5,2013-01-24 02:25:00,
2013-01-23 21:30:00,63.1,63.1,30.26,North,0,1.0,5.0,100,0.00,,,-99.99,WeatherLink 5.5,2013-01-24 02:30:00,
2013-01-23 21:35:00,63.0,63.0,30.26,NNW,337,0.0,6.0,100,0.00,,,-99.99,WeatherLink 5.5,2013-01-24 02:35:00,
2013-01-23 21:40:00,62.9,62.9,30.26,NNW,337,0.0,1.0,100,0.00,,,-99.99,WeatherLink 5.5,2013-01-24 02:40:00,
2013-01-23 21:45:00,62.8,62.8,30.26,NNW,337,0.0,4.0,100,0.00,,,-99.99,WeatherLink 5.5,2013-01-24 02:45:00,
2013-01-23 21:50:00,62.7,62.7,30.26,NNW,337,1.0,4.0,100,0.00,,,-99.99,WeatherLink 5.5,2013-01-24 02:50:00,
2013-01-23 21:55:00,62.7,62.7,30.26,NNW,337,1.0,4.0,100,0.00,,,-99.99,WeatherLink 5.5,2013-01-24 02:55:00,
2013-01-23 22:00:00,62.7,62.7,30.26,NNW,337,0.0,4.0,100,0.00,,,-99.99,WeatherLink 5.5,2013-01-24 03:00:00,
2013-01-23 22:05:00,62.5,62.5,30.26,NNW,337,0.0,3.0,100,0.00,,,-99.99,WeatherLink 5.5,2013-01-24 03:05:00,
2013-01-23 22:10:00,62.5,62.5,30.26,NNW,337,0.0,3.0,100,0.00,,,-99.99,WeatherLink 5.5,2013-01-24 03:10:00,
2013-01-23 22:15:00,62.4,62.4,30.26,NNW,337,0.0,3.0,100,0.00,,,-99.99,WeatherLink 5.5,2013-01-24 03:15:00,
2013-01-23 22:20:00,62.3,62.3,30.27,North,-999,0.0,1.0,100,0.00,,,-99.99,WeatherLink 5.5,2013-01-24 03:20:00,
2013-01-23 22:25:00,62.2,62.2,30.26,North,-999,0.0,0.0,100,0.00,,,-99.99,WeatherLink 5.5,2013-01-24 03:25:00,
2013-01-23 22:30:00,62.1,62.1,30.26,NNW,337,0.0,5.0,100,0.00,,,-99.99,WeatherLink 5.5,2013-01-24 03:30:00,
2013-01-23 22:35:00,62.1,62.1,30.26,NNW,337,0.0,4.0,100,0.00,,,-99.99,WeatherLink 5.5,2013-01-24 03:35:00,
2013-01-23 22:40:00,62.0,62.0,30.26,NNW,337,0.0,3.0,100,0.00,,,-99.99,WeatherLink 5.5,2013-01-24 03:40:00,
2013-01-23 22:45:00,61.9,61.9,30.26,NNW,337,0.0,1.0,100,0.00,,,-99.99,WeatherLink 5.5,2013-01-24 03:45:00,
2013-01-23 22:50:00,61.8,61.8,30.25,North,-999,0.0,0.0,100,0.00,,,-99.99,WeatherLink 5.5,2013-01-24 03:50:00,
2013-01-23 22:55:00,61.7,61.7,30.25,NNW,337,0.0,1.0,100,0.00,,,-99.99,WeatherLink 5.5,2013-01-24 03:55:00,
2013-01-23 23:00:00,61.5,61.5,30.25,North,-999,0.0,0.0,100,0.00,,,-99.99,WeatherLink 5.5,2013-01-24 04:00:00,
2013-01-23 23:05:00,61.3,61.3,30.25,North,-999,0.0,0.0,100,0.00,,,-99.99,WeatherLink 5.5,2013-01-24 04:05:00,
2013-01-23 23:10:00,61.2,61.2,30.25,NNW,337,0.0,3.0,100,0.00,,,-99.99,WeatherLink 5.5,2013-01-24 04:10:00,
2013-01-23 23:15:00,61.2,61.2,30.25,NNW,337,0.0,3.0,100,0.00,,,-99.99,WeatherLink 5.5,2013-01-24 04:15:00,
2013-01-23 23:20:00,61.0,61.0,30.25,NNW,337,0.0,2.0,100,0.00,,,-99.99,WeatherLink 5.5,2013-01-24 04:20:00,
2013-01-23 23:25:00,60.9,60.9,30.25,North,-999,0.0,0.0,100,0.00,,,-99.99,WeatherLink 5.5,2013-01-24 04:25:00,
2013-01-23 23:30:00,60.7,60.7,30.25,North,-999,0.0,0.0,100,0.00,,,-99.99,WeatherLink 5.5,2013-01-24 04:30:00,
2013-01-23 23:35:00,60.6,-99.9,30.25,NNW,337,0.0,2.0,0,0.00,,,-99.99,WeatherLink 5.5,2013-01-24 04:35:00,
2013-01-23 23:40:00,60.5,-99.9,30.25,North,-999,0.0,0.0,0,0.00,,,-99.99,WeatherLink 5.5,2013-01-24 04:40:00,
2013-01-23 23:45:00,60.5,-99.9,30.24,NNW,337,0.0,3.0,0,0.00,,,-99.99,WeatherLink 5.5,2013-01-24 04:45:00,
2013-01-23 23:50:00,60.4,-99.9,30.24,North,-999,0.0,1.0,0,0.00,,,-99.99,WeatherLink 5.5,2013-01-24 04:50:00,
2013-01-23 23:55:00,60.3,-99.9,30.24,NNW,337,1.0,4.0,0,0.00,,,-99.99,WeatherLink 5.5,2013-01-24 04:55:00,